Powrót do katalogu

COSMOS 397 DEB *

AktywnyLEO
NORAD 5531·DEBRIS·🇷🇺 Russia

Wystrzelony Feb 25, 1971 z Baikonur Cosmodrome

Loading…

Następne Przeloty (najbliższe 24 godziny)

TLE

ŚwieżeSource: Space-Track

Epoka: Sep 14, 2026, 10:41 UTC

1 05531U 71015BV  26257.44553909  .00000953  00000-0  33232-3 0  9992
2 05531  66.6629 314.5102 0034108 317.6817  42.1654 14.39332518865769

Śledź COSMOS 397 DEB * w czasie rzeczywistym z AllMySat

Download on the App Store